KD5HIA Weather Reports


time (UTC)temp
C
wind
direction
speed
KPH
gust
KPH
rain 1hr
cm
rain 24hr
cm
rain mn
cm
humidity
%
barometer
mb
20260507115016 12 45 11.3 22.5 0.00 0.03 0.00 81 1019.8
20260507114016 12 45 12.9 24.1 0.00 0.03 0.00 81 1019.8
20260507113016 12 45 11.3 17.7 0.00 0.03 0.00 81 1019.6
20260507112016 12 45 12.9 22.5 0.00 0.03 0.00 82 1019.5
20260507111016 12 45 11.3 19.3 0.00 0.03 0.00 82 1019.3
20260507110017 12 45 11.3 20.9 0.00 0.03 0.00 83 1019.3
20260507105016 12 45 9.7 17.7 0.00 0.03 0.00 84 1019.1
20260507104016 12 45 14.5 29.0 0.00 0.03 0.00 82 1019.0
20260507103016 12 45 12.9 24.1 0.00 0.03 0.00 81 1019.0
20260507102016 12 45 12.9 20.9 0.00 0.03 0.00 81 1019.1
20260507101016 13 45 9.7 17.7 0.00 0.03 0.00 80 1019.2
20260507100016 13 45 12.9 17.7 0.00 0.03 0.00 80 1019.5
20260507095016 13 45 9.7 17.7 0.00 0.03 0.00 79 1019.3
20260507094016 13 45 8.0 14.5 0.00 0.03 0.00 79 1019.4
20260507093016 13 68 11.3 19.3 0.00 0.03 0.00 79 1019.1
20260507092016 13 45 12.9 24.1 0.00 0.03 0.00 78 1018.8
20260507091016 13 45 9.7 14.5 0.00 0.03 0.00 79 1018.7
20260507090016 13 45 9.7 25.7 0.00 0.03 0.00 78 1018.8
20260507085016 13 45 8.0 16.1 0.00 0.03 0.00 78 1018.6
20260507084016 13 68 12.9 19.3 0.00 0.03 0.00 78 1018.5
20260507083016 13 45 8.0 14.5 0.00 0.03 0.00 78 1018.4
20260507082016 13 45 8.0 16.1 0.00 0.03 0.00 78 1018.1
20260507081016 13 45 8.0 16.1 0.00 0.03 0.00 78 1018.1
20260507080016 14 45 8.0 14.5 0.00 0.03 0.00 78 1018.0
20260507075020 14 45 4.8 8.0 0.00 0.03 0.00 78 1017.7
20260507074020 14 45 6.4 14.5 0.00 0.03 0.00 78 1017.7
20260507073020 14 45 9.7 20.9 0.00 0.03 0.00 77 1017.4
20260507072016 14 45 6.4 9.7 0.00 0.03 0.00 78 1017.2
20260507071016 14 45 8.0 14.5 0.00 0.03 0.00 78 1016.8
20260507070016 14 45 8.0 14.5 0.00 0.03 0.00 78 1016.8
20260507065016 15 68 11.3 20.9 0.00 0.03 0.00 79 1016.9
20260507064016 15 68 11.3 19.3 0.00 0.03 0.00 80 1016.5
20260507063016 14 68 11.3 17.7 0.00 0.03 0.00 81 1016.4
20260507062016 14 68 11.3 17.7 0.00 0.03 0.00 81 1016.2
20260507061016 14 68 12.9 17.7 0.00 0.03 0.00 80 1016.2
20260507060016 14 68 9.7 16.1 0.00 0.03 0.00 79 1016.1
20260507055016 15 68 8.0 14.5 0.00 0.03 0.00 79 1016.2
20260507054016 15 68 12.9 19.3 0.00 0.03 0.00 79 1016.2
20260507053016 15 68 11.3 17.7 0.00 0.03 0.00 78 1016.2
20260507052016 15 68 11.3 20.9 0.00 0.03 0.00 78 1016.0
20260507051016 15 68 11.3 20.9 0.00 0.03 0.00 77 1016.0
20260507050016 15 45 11.3 22.5 0.00 0.03 0.03 78 1015.9
20260507045016 15 68 11.3 17.7 0.00 0.03 0.03 80 1015.8
20260507044016 15 68 9.7 16.1 0.00 0.03 0.03 82 1015.7
20260507043016 15 45 6.4 12.9 0.00 0.03 0.03 82 1015.6
20260507042016 15 68 9.7 14.5 0.00 0.03 0.03 81 1015.1
20260507041016 15 68 8.0 12.9 0.00 0.03 0.03 81 1015.2
20260507040016 15 68 6.4 11.3 0.00 0.03 0.03 80 1015.0
20260507035016 15 68 6.4 8.0 0.00 0.03 0.03 79 1014.7
20260507034016 16 68 6.4 9.7 0.00 0.03 0.03 79 1014.7
20260507033016 16 68 6.4 8.0 0.00 0.03 0.03 78 1014.5
20260507032016 16 68 4.8 6.4 0.00 0.03 0.03 77 1014.3
20260507031016 16 68 3.2 4.8 0.00 0.03 0.03 76 1014.1
20260507030016 16 90 3.2 4.8 0.00 0.03 0.03 75 1013.9
20260507025016 17 90 3.2 4.8 0.00 0.03 0.03 74 1014.0
20260507024016 17 90 3.2 4.8 0.00 0.03 0.03 73 1013.7
20260507023016 17 90 3.2 6.4 0.00 0.03 0.03 72 1013.5
20260507022016 17 90 4.8 4.8 0.00 0.03 0.03 71 1013.3
20260507021016 18 90 3.2 4.8 0.00 0.03 0.03 69 1013.3
20260507020016 18 90 4.8 11.3 0.00 0.03 0.03 67 1013.1
20260507015016 18 90 4.8 9.7 0.00 0.03 0.03 66 1013.1
20260507014016 19 90 6.4 9.7 0.00 0.03 0.03 65 1013.2
20260507013016 20 68 11.3 17.7 0.00 0.03 0.03 61 1013.0
20260507012016 20 68 11.3 16.1 0.00 0.03 0.03 60 1013.0
20260507011016 20 68 12.9 19.3 0.00 0.03 0.03 60 1012.9
20260507010016 20 68 12.9 22.5 0.00 0.03 0.03 59 1012.7
20260507005016 21 68 14.5 22.5 0.00 0.03 0.03 58 1012.7
20260507004016 21 68 12.9 19.3 0.00 0.03 0.03 58 1012.8
20260507003016 21 68 14.5 20.9 0.00 0.03 0.03 58 1012.7
20260507002016 21 68 14.5 19.3 0.00 0.03 0.03 57 1012.6
20260507001016 21 68 17.7 22.5 0.00 0.03 0.03 56 1012.5
20260507000016 21 68 16.1 22.5 0.00 0.03 0.03 56 1012.6
20260506235016 21 68 12.9 17.7 0.00 0.03 0.03 56 1012.7
20260506234016 21 68 12.9 19.3 0.00 0.03 0.03 56 1012.6
20260506233016 21 45 6.4 12.9 0.00 0.03 0.03 57 1012.4
20260506232016 22 45 4.8 14.5 0.00 0.03 0.03 57 1012.7
20260506231016 22 68 8.0 16.1 0.00 0.03 0.03 56 1012.6
20260506230016 22 68 4.8 14.5 0.00 0.03 0.03 56 1012.5
20260506225016 22 68 6.4 19.3 0.00 0.03 0.03 56 1012.3
20260506224016 22 45 4.8 8.0 0.00 0.03 0.03 54 1012.3
20260506223016 22 68 6.4 16.1 0.00 0.03 0.03 56 1012.2
20260506222016 22 45 4.8 8.0 0.00 0.03 0.03 54 1012.3
20260506221016 22 23 3.2 9.7 0.00 0.03 0.03 55 1012.3
20260506220016 22 68 8.0 14.5 0.00 0.03 0.03 56 1012.5
20260506215016 21 68 4.8 12.9 0.00 0.03 0.03 59 1012.4
20260506214016 21 45 6.4 16.1 0.00 0.03 0.03 56 1012.4
20260506213016 21 68 8.0 20.9 0.00 0.03 0.03 57 1012.6
20260506212016 21 68 6.4 12.9 0.00 0.03 0.03 57 1012.7
20260506211016 21 68 6.4 14.5 0.00 0.03 0.03 59 1012.8
20260506210016 20 68 6.4 14.5 0.00 0.03 0.03 59 1012.5
20260506205016 20 68 6.4 16.1 0.00 0.03 0.03 61 1012.8
20260506204016 20 45 6.4 16.1 0.00 0.03 0.03 61 1012.9
20260506203016 20 45 6.4 9.7 0.00 0.03 0.03 65 1013.0
20260506202016 19 90 4.8 14.5 0.00 0.03 0.03 65 1013.4
20260506201016 18 68 9.7 17.7 0.00 0.03 0.03 67 1013.5
20260506200016 18 68 8.0 16.1 0.00 0.03 0.03 67 1013.5
20260506195016 18 90 6.4 12.9 0.00 0.03 0.03 67 1013.7
20260506194016 17 68 9.7 17.7 0.00 0.03 0.03 71 1013.8
20260506193016 17 68 9.7 17.7 0.00 0.03 0.03 71 1013.7
20260506192020 16 68 9.7 16.1 0.00 0.03 0.03 73 1013.9
20260506191020 16 45 6.4 12.9 0.00 0.03 0.03 71 1014.0
20260506190020 16 68 9.7 19.3 0.00 0.03 0.03 73 1013.9
20260506185016 16 68 9.7 14.5 0.00 0.03 0.03 75 1014.1
20260506184016 16 68 11.3 16.1 0.00 0.03 0.03 75 1014.0
20260506183016 16 68 14.5 20.9 0.00 0.03 0.03 73 1014.3
20260506182016 15 45 8.0 16.1 0.00 0.03 0.03 73 1014.3
20260506181016 15 68 16.1 20.9 0.00 0.03 0.03 74 1014.4
20260506180017 15 68 12.9 20.9 0.00 0.03 0.03 74 1014.3
20260506175016 16 68 16.1 19.3 0.00 0.03 0.03 73 1014.6
20260506174016 15 68 11.3 20.9 0.00 0.03 0.03 73 1014.6
20260506173016 15 68 11.3 20.9 0.00 0.03 0.03 73 1014.8
20260506172016 15 45 11.3 20.9 0.00 0.03 0.03 74 1014.8
20260506171017 15 68 11.3 19.3 0.00 0.03 0.03 74 1014.6
20260506170016 15 68 8.0 19.3 0.00 0.03 0.03 75 1014.5
20260506165016 15 68 8.0 16.1 0.00 0.03 0.03 76 1014.4
20260506164016 14 45 8.0 17.7 0.00 0.03 0.03 78 1014.5
20260506163016 14 45 6.4 12.9 0.00 0.03 0.03 78 1014.4
20260506162016 13 23 6.4 12.9 0.00 0.03 0.03 78 1014.1
20260506161016 13 45 6.4 11.3 0.00 0.03 0.03 78 1014.1
20260506160016 13 23 4.8 9.7 0.00 0.03 0.03 79 1014.0
20260506155016 13 45 6.4 9.7 0.00 0.03 0.03 79 1014.0
20260506154016 13 23 6.4 12.9 0.00 0.03 0.03 80 1013.9
20260506153016 13 23 4.8 9.7 0.00 0.03 0.03 80 1013.9
20260506152016 13 23 4.8 6.4 0.00 0.03 0.03 82 1013.8
20260506151016 12 23 8.0 12.9 0.00 0.03 0.03 83 1013.7
20260506150016 12 45 6.4 11.3 0.00 0.03 0.03 84 1013.2
20260506145017 12 23 8.0 14.5 0.00 0.03 0.03 85 1013.1
20260506144016 12 23 8.0 14.5 0.00 0.03 0.03 85 1013.7
20260506143016 12 23 6.4 12.9 0.00 0.03 0.03 86 1013.3
20260506142016 12 45 6.4 9.7 0.00 0.03 0.03 87 1013.1
20260506141016 11 45 6.4 11.3 0.00 0.03 0.03 88 1012.8
20260506140016 11 68 12.9 20.9 0.00 0.03 0.03 88 1012.7
20260506135016 11 45 11.3 20.9 0.00 0.03 0.03 87 1012.7
20260506134017 11 23 8.0 14.5 0.03 0.03 0.03 88 1012.9
20260506133016 11 23 6.4 12.9 0.03 0.03 0.03 87 1012.8
20260506132016 12 45 12.9 29.0 0.03 0.03 0.03 87 1012.4
20260506131016 12 45 11.3 27.4 0.03 0.03 0.03 87 1012.2
20260506130016 12 68 14.5 25.7 0.03 0.03 0.03 87 1012.2
20260506125016 12 68 20.9 29.0 0.03 0.03 0.03 85 1011.2
20260506124016 12 45 6.4 12.9 0.00 0.00 0.00 83 1013.4
20260506123016 12 68 20.9 27.4 0.00 0.00 0.00 80 1012.6
20260506122016 12 68 11.3 20.9 0.00 0.00 0.00 80 1012.6
20260506121016 13 23 6.4 9.7 0.00 0.00 0.00 79 1011.5
20260506120016 13 68 12.9 29.0 0.00 0.00 0.00 79 1010.6